Dr. Bill's Marine Weather

Coastal Marine Forecast

       Alabama   Florida   Louisiana   Mississippi

Printer Friendly AL  FL  LA  MS

Data Buoys:   Western Gulf of Mexico    Eastern Gulf of Mexico
**********************************************************************
  Alabama
500 PM CST FRI DEC 15 2017

ALZ051>064-160000-
SOUTHWEST ALABAMA
  
CITY           SKY/WX    TMP DP  RH WIND       PRES   REMARKS
MOBILE         CLOUDY    46  32  58 N7        30.20R                  
BROOKLEY FIELD CLOUDY    48  32  53 N9        30.22R                  
EVERGREEN      MOCLDY    44  30  57 N5        30.19S                  
**********************************************************************
  Florida
600 PM EST FRI DEC 15 2017

FLZ001>010-012>015-112-114-115-160000-
PANHANDLE FLORIDA
  
CITY           SKY/WX    TMP DP  RH WIND       PRES   REMARKS
PENSACOLA      CLOUDY    47  33  58 N10       30.19R WCI  42          
PENSACOLA NAS  CLOUDY    48  34  58 N7        30.18S WCI  45          
MILTON NAS     CLOUDY    44  36  73 CALM      30.18                   
CRESTVIEW      CLOUDY    45  34  65 N6        30.19R WCI  42          
DUKE FIELD     CLOUDY    46  31  56 N9        30.16R WCI  41          
VALPARAISO     CLOUDY    47  32  55 N8        30.18R WCI  44          
MARY ESTHER    CLOUDY    48  34  58 N10       30.16R WCI  44          
PANAMA CITY    CLOUDY    50  39  66 NW7       30.16R                  
TYNDALL AFB    CLOUDY    52  39  61 N8        30.16R                  
APALACHICOLA   CLOUDY    57  44  62 N8        30.12R                  

STATION/POSITION SKY/WX   TEMP    WIND        PRES    WAVE   SWELL
                          AIR SEA DIR/SP/G            HT/PER HT/PER
                          (F)     (DEG/KT/KT) (MB)    (FT/S) (FT/S)
29.2N   88.2W              58 71   10/ 16/ 19 1021.8
28.8N   86.0W              63 74  350/ 16/ 19 1019.6R   4/ 5
PANAMA CITY BEAC           50 62  360/  5/  6 1021.5R
TOWER C                    60     360/ 13/ 14 1020.3R

**********************************************************************
  Louisiana
500 PM CST FRI DEC 15 2017

LAZ040-048-061>063-065-066-069-160000-
SOUTHEAST LOUISIANA
  
CITY           SKY/WX    TMP DP  RH WIND       PRES   REMARKS
N.O. INTL ARPT CLOUDY    49  37  63 N6        30.22R                  
N.O. LAKEFRONT MOCLDY    48  37  65 N7        30.22R                  
N.O. DOWNTOWN* MOCLDY    48  36  63 N6        30.22R                  
RESERVE*       MOCLDY    48  36  62 CALM      30.22R                  
SLIDELL        CLOUDY    47  36  65 N3        30.20F                  
BATON ROUGE    CLOUDY    47  32  56 N3        30.22S                  
BOOTHVILLE     CLOUDY    51  41  68 N9        30.21R                  
BELLE CHASSE   CLOUDY    47  40  76 N5        30.21R                  
BOGALUSA*      DRIZZLE   46  35  64 MISG      30.22R                  
GALLIANO*      LGT RAIN  47  38  71 N7        30.20F                  
NEW ROADS*     FAIR      46  33  59 CALM      30.23S                  
GONZALES*      FAIR      47  33  59 NE3       30.21S                  
HAMMOND*       CLOUDY    45  36  70 CALM      30.22R                  
HOUMA*         CLOUDY    46  41  81 N6        30.20S                  
PORT FOURCHON* NOT AVBL                                               

**********************************************************************
  Mississippi
500 PM CST FRI DEC 15 2017

MSZ080>082-160000-
COASTAL MISSISSIPPI
  
CITY           SKY/WX    TMP DP  RH WIND       PRES   REMARKS
BAY ST LOUIS   PTCLDY    46  34  61 N6        30.20F                  
BILOXI         CLOUDY    46  33  61 NE6       30.18F                  
PASCAGOULA     PTCLDY    47  34  60 N7        30.20S                  
GULFPORT       PTCLDY    47  33  58 N9        30.19F                  
About Us | Coastal Marine Forecast | Offshore Marine Forecast
Gulf Coast Tides | Hourly Weather Observations | Weather Radar
Sea Surface Temperatures | Solar/Lunar Data | Hurricane Advisories | Home
     
USA Logo Dr. Bill's Marine Weather
Last date changed: December 9, 2014 4:08 PM
www.gulfmarineweather.com/hourlyweatherobservations.shtml
Contact Us